Weather History for LIVC - November, 2013

Change the Weather History Date:

Saturday, November 30, 2013

  Actual Average Record
Temperature  
Mean Temperature 24 °F -  
Max Temperature 28 °F 31 °F 44 °F (2011)
Min Temperature 19 °F 23 °F 15 °F (1998)
Degree Days  
Heating Degree Days 42    
Moisture  
Dew Point 17 °F    
Average Humidity 71    
Maximum Humidity 93    
Minimum Humidity 28    
Precipitation  
Precipitation 0.02 in 0.07 in - ()
Sea Level Pressure  
Sea Level Pressure 29.83 in    
Wind  
Wind Speed 18 mph ()    
Max Wind Speed 40 mph    
Max Gust Speed -    
Visibility 2.1 miles    
Events Fog , Snow    
Averages and records for this station are not official NWS values.
T = Trace of Precipitation, MM = Missing Value Source: Averaged Metar Reports

Daily Weather History Graph

Daily Weather History Graph

Search for Another Location

Airport or City:

Trip Planner

Search our weather history database for the weather conditions in past years. The results will help you decide how hot, cold, wet, or windy it might be!

Date:

Astronomy

Nov. 30, 2013 Rise Set
Actual Time 7:31 AM CET 4:40 PM CET
Civil Twilight 6:58 AM CET 5:12 PM CET
Nautical Twilight 6:22 AM CET 5:48 PM CET
Astronomical Twilight 5:48 AM CET 6:23 PM CET
Moon 4:18 AM CET (11/30) 2:57 PM CET (11/30)
Length of Visible Light 10h 13m
Length of Day
9h 08m
Waning Crescent, 9% of the Moon is Illuminated
Nov 30
Waning Crescent
Dec 3
New
Dec 9
First Quarter
Dec 17
Full
Dec 25
Last Quarter

Hourly Weather History & Observations

Time (CET) Temp. Windchill Dew Point Humidity Pressure Visibility Wind Dir Wind Speed Gust Speed Precip Events Conditions
12:00 AM 28 °F - 8 °F 28%  in 31 mi West 20.7 mph - -  
12:55 AM 28.4 °F 14.7 °F 8.6 °F 43% 29.89 in - WNW 21.9 mph - N/A   Clear
1:00 AM 28 °F - 8 °F 28%  in 31 mi WNW 21.9 mph - -  
1:55 AM 28.4 °F 15.1 °F 8.6 °F 43% 29.86 in - West 20.7 mph - N/A   Clear
2:00 AM 28 °F - 8 °F 29%  in 19 mi West 20.7 mph - -  
2:55 AM 28.4 °F 13.8 °F 8.6 °F 43% 29.83 in - West 25.3 mph - N/A   Clear
3:55 AM 28.4 °F 14.4 °F 10.4 °F 47% 29.80 in - West 23.0 mph - N/A   Clear
4:55 AM 28.4 °F 13.8 °F 10.4 °F 47% 29.80 in - West 25.3 mph - N/A   Clear
5:00 AM 28 °F - 10 °F 32%  in 19 mi West 25.3 mph - -  
5:55 AM 26.6 °F 11.7 °F 12.2 °F 55% 29.77 in 6.2 mi West 24.2 mph - N/A   Scattered Clouds
6:55 AM 26.6 °F 12.7 °F 21.2 °F 80% 29.77 in 1.2 mi West 20.7 mph - N/A   Mist
7:00 AM 27 °F - 21 °F 70%  in 1 mi West 20.7 mph - -   Mist
7:55 AM 26.6 °F 13.8 °F 23.0 °F 86% 29.77 in 0.1 mi West 17.3 mph - N/A Fog Light Freezing Fog
8:00 AM 27 °F - 22 °F 75%  in 0 mi West 17.3 mph - - Fog Heavy Fog
8:55 AM 26.6 °F 15.2 °F 23.0 °F 86% 29.77 in 0.1 mi West 13.8 mph - N/A Fog Light Freezing Fog
9:55 AM 26.6 °F 18.2 °F 23.0 °F 86% 29.80 in 0.1 mi West 8.1 mph - N/A Fog Light Freezing Fog
10:00 AM - - - N/A% - - North - - N/A   Unknown
10:55 AM 28.4 °F 22.2 °F 23.0 °F 80% 29.80 in 0.1 mi WSW 5.8 mph - N/A Fog Light Freezing Fog
11:00 AM 28 °F - 24 °F 77%  in 0 mi WSW 5.8 mph - - Fog Heavy Fog
11:55 AM 28.4 °F 23.3 °F 23.0 °F 80% 29.80 in 0.1 mi West 4.6 mph - N/A Fog , Snow Light Snow
12:00 PM 28 °F - 24 °F 77%  in 0 mi West 4.6 mph - - Snow Light Snow
12:55 PM 24.8 °F 17.9 °F 21.2 °F 86% 29.80 in 0.1 mi West 5.8 mph - N/A Fog Light Freezing Fog
1:00 PM 24 °F - 20 °F 81%  in 0 mi West 5.8 mph - - Fog Heavy Fog
1:55 PM 23.0 °F 13.1 °F 15.8 °F 74% 29.80 in 0.2 mi WSW 9.2 mph - N/A Fog Light Freezing Fog
2:55 PM 21.2 °F 8.3 °F 14.0 °F 74% 29.80 in 6.2 mi WSW 13.8 mph - N/A   Partly Cloudy
3:00 PM 22 °F - 15 °F 62%  in 9 mi WSW 13.8 mph - - Fog Light Fog
3:55 PM 21.2 °F 6.4 °F 14.0 °F 74% 29.80 in - West 18.4 mph - N/A   Clear
4:55 PM 19.4 °F 3.6 °F 14.0 °F 80% 29.83 in 0.7 mi West 19.6 mph - N/A   Mist
5:55 PM 19.4 °F 2.5 °F 17.6 °F 93% 29.83 in 0.0 mi West 23.0 mph - N/A Fog Light Freezing Fog
6:00 PM 20 °F - 18 °F 86%  in 0 mi West 23.0 mph - - Fog Heavy Fog
6:55 PM 21.2 °F 3.5 °F 17.6 °F 86% 29.86 in 0.0 mi West 27.6 mph - N/A Fog Light Freezing Fog
7:00 PM 20 °F - 18 °F 88%  in 0 mi West 27.6 mph - - Fog Heavy Fog
7:55 PM 21.2 °F 3.9 °F 17.6 °F 86% 29.89 in 0.0 mi West 26.5 mph - N/A Fog Light Freezing Fog
8:55 PM 21.2 °F 4.2 °F 17.6 °F 86% 29.89 in 0.0 mi WNW 25.3 mph - N/A Fog Light Freezing Fog
9:00 PM 20 °F - 18 °F 87%  in 0 mi WNW 25.3 mph - - Fog Heavy Fog
9:55 PM 19.4 °F 0.8 °F 17.6 °F 93% 29.89 in 0.0 mi NNW 28.8 mph - N/A Fog Light Freezing Fog
10:55 PM 19.4 °F -1.6 °F 17.6 °F 93% 29.89 in 0.0 mi NNW 39.1 mph - N/A Fog Light Freezing Fog
11:00 PM 20 °F - 17 °F 83%  in 0 mi NNW 39.1 mph - - Fog Heavy Fog
11:55 PM 19.4 °F -1.8 °F 17.6 °F 93% 29.89 in 0.0 mi North 40.3 mph - N/A Fog Light Freezing Fog